When you browse on this site, cookies collect data to enhance your experience and personalize the content and advertising you see.
Visit our Privacy Policy to learn more. By continuing to use the site, you agree to this use of cookies and data.
  • In Portugal
  • List of Countries
  • For 7 days
  • Water Temperature
  • Satellite Maps
  • Weather Map
  • Weather Widgets
  • user-avatar
    Login

    Hourly Weather Meshhed

    Today, 17 January, Thursday

    Time Temperature Precipitation Wind Pressure Humidity
    00:00 +3°C° 0 mm 2 mps 608 mmHg 51%
    01:00 +3°C° 0 mm 2 mps 608 mmHg 52%
    02:00 +3°C° 0 mm 2 mps 607 mmHg 53%
    03:00 +3°C° 0 mm 2 mps 607 mmHg 53%
    04:00 +3°C° 0 mm 2 mps 606 mmHg 54%
    05:00 +3°C° 0 mm 2 mps 606 mmHg 55%
    06:00 +3°C° 0 mm 2 mps 606 mmHg 56%
    07:00 +3°C° 0 mm 2 mps 606 mmHg 58%
    08:00 +5°C° 0 mm 2 mps 606 mmHg 55%
    09:00 +7°C° 0 mm 3 mps 607 mmHg 51%
    10:00 +8°C° 0 mm 3 mps 607 mmHg 48%
    11:00 +10°C° 0 mm 4 mps 607 mmHg 45%
    12:00 +11°C° 0 mm 4 mps 607 mmHg 41%
    13:00 +13°C° 0 mm 5 mps 607 mmHg 38%
    14:00 +13°C° 0 mm 5 mps 607 mmHg 38%
    15:00 +13°C° 0 mm 4 mps 606 mmHg 39%
    16:00 +12°C° 0 mm 4 mps 606 mmHg 39%
    17:00 +11°C° 0 mm 4 mps 605 mmHg 43%
    18:00 +10°C° 0 mm 3 mps 604 mmHg 46%
    19:00 +9°C° 0 mm 3 mps 603 mmHg 50%
    20:00 +8°C° 0.2 mm 4 mps 603 mmHg 53%
    21:00 +8°C° 0.2 mm 5 mps 602 mmHg 56%
    22:00 +7°C° 0.2 mm 6 mps 602 mmHg 59%
    23:00 +6°C° 0.8 mm 7 mps 601 mmHg 60%

    Tomorrow, 18 January, Friday

    Time Temperature Precipitation Wind Pressure Humidity
    00:00 +6°C° 0.8 mm 7 mps 601 mmHg 62%
    01:00 +5°C° 0.8 mm 8 mps 601 mmHg 64%
    02:00 +4°C° 0 mm 7 mps 601 mmHg 66%
    03:00 +3°C° 0 mm 7 mps 601 mmHg 67%
    04:00 +2°C° 0 mm 7 mps 601 mmHg 69%
    05:00 0°C° 0 mm 7 mps 602 mmHg 66%
    06:00 -1°C° 0 mm 6 mps 602 mmHg 63%
    07:00 -1°C° 0 mm 5 mps 603 mmHg 60%
    08:00 -3°C° 0.3 mm 6 mps 604 mmHg 62%
    09:00 -3°C° 0.3 mm 7 mps 605 mmHg 65%
    10:00 -4°C° 0.3 mm 8 mps 606 mmHg 67%
    11:00 -2°C° 0.1 mm 8 mps 606 mmHg 64%
    12:00 -2°C° 0.1 mm 7 mps 606 mmHg 61%
    13:00 -2°C° 0.1 mm 7 mps 607 mmHg 58%
    14:00 -2°C° 0 mm 6 mps 607 mmHg 56%
    15:00 -1°C° 0 mm 5 mps 607 mmHg 55%
    16:00 -1°C° 0 mm 4 mps 608 mmHg 53%
    17:00 -2°C° 0.1 mm 4 mps 608 mmHg 56%
    18:00 -1°C° 0.1 mm 3 mps 608 mmHg 59%
    19:00 -2°C° 0.1 mm 2 mps 608 mmHg 61%
    20:00 -2°C° 0.1 mm 2 mps 609 mmHg 63%
    21:00 -3°C° 0.1 mm 2 mps 609 mmHg 64%
    22:00 -3°C° 0.1 mm 2 mps 609 mmHg 66%
    23:00 -3°C° 0 mm 2 mps 609 mmHg 67%

    Day after tomorrow, 19 January, Saturday

    Time Temperature Precipitation Wind Pressure Humidity
    00:00 -3°C° 0 mm 2 mps 609 mmHg 67%
    01:00 -4°C° 0 mm 2 mps 609 mmHg 68%
    02:00 -4°C° 0 mm 2 mps 609 mmHg 68%
    03:00 -2°C° 0 mm 1 mps 609 mmHg 68%
    04:00 -3°C° 0 mm 1 mps 609 mmHg 69%
    05:00 -3°C° 0 mm 1 mps 609 mmHg 68%
    06:00 -3°C° 0 mm 1 mps 609 mmHg 68%
    07:00 -3°C° 0 mm 1 mps 609 mmHg 67%
    08:00 -2°C° 0 mm 1 mps 610 mmHg 61%
    09:00 -2°C° 0 mm 1 mps 610 mmHg 55%
    10:00 -1°C° 0 mm 1 mps 611 mmHg 49%
    11:00 -1°C° 0 mm 1 mps 610 mmHg 48%
    12:00 0°C° 0 mm 1 mps 610 mmHg 47%
    13:00 0°C° 0 mm 1 mps 609 mmHg 46%
    14:00 0°C° 0 mm 1 mps 609 mmHg 47%
    15:00 0°C° 0 mm 1 mps 609 mmHg 48%
    16:00 0°C° 0 mm 1 mps 609 mmHg 49%
    17:00 -1°C° 0.1 mm 1 mps 609 mmHg 53%
    18:00 -4°C° 0.1 mm 2 mps 609 mmHg 58%
    19:00 -4°C° 0.1 mm 2 mps 610 mmHg 62%
    20:00 -5°C° 0.1 mm 2 mps 610 mmHg 65%
    21:00 -5°C° 0.1 mm 2 mps 610 mmHg 68%
    22:00 -5°C° 0.1 mm 2 mps 609 mmHg 71%
    23:00 -6°C° 0.1 mm 2 mps 609 mmHg 70%

    20 January, Sunday

    Time Temperature Precipitation Wind Pressure Humidity
    00:00 -4°C° 0.1 mm 1 mps 609 mmHg 68%
    01:00 -4°C° 0.1 mm 1 mps 609 mmHg 67%
    02:00 -6°C° 0 mm 1 mps 609 mmHg 65%
    03:00 -6°C° 0 mm 1 mps 609 mmHg 64%
    04:00 -6°C° 0 mm 1 mps 609 mmHg 62%
    05:00 -6°C° 0 mm 1 mps 609 mmHg 62%
    06:00 -7°C° 0 mm 1 mps 610 mmHg 62%
    07:00 -7°C° 0 mm 1 mps 610 mmHg 62%
    08:00 -6°C° 0 mm 1 mps 610 mmHg 58%
    09:00 -6°C° 0 mm 1 mps 611 mmHg 55%
    10:00 -4°C° 0 mm 1 mps 611 mmHg 52%
    11:00 -3°C° 0 mm 1 mps 611 mmHg 49%
    12:00 -3°C° 0 mm 1 mps 611 mmHg 46%
    13:00 -2°C° 0 mm 1 mps 611 mmHg 44%
    14:00 -2°C° 0 mm 1 mps 611 mmHg 45%
    15:00 -2°C° 0 mm 1 mps 611 mmHg 45%
    16:00 -2°C° 0 mm 1 mps 611 mmHg 46%
    17:00 -2°C° 0 mm 1 mps 611 mmHg 48%
    18:00 -3°C° 0 mm 1 mps 612 mmHg 51%
    19:00 -3°C° 0 mm 1 mps 612 mmHg 53%
    20:00 -3°C° 0 mm 1 mps 612 mmHg 55%
    21:00 -4°C° 0 mm 1 mps 612 mmHg 57%
    22:00 -6°C° 0 mm 2 mps 612 mmHg 60%
    23:00 -4°C° 0 mm 1 mps 612 mmHg 62%

    21 January, Monday

    Time Temperature Precipitation Wind Pressure Humidity
    00:00 -6°C° 0 mm 1 mps 612 mmHg 65%
    01:00 -6°C° 0 mm 1 mps 611 mmHg 67%
    02:00 -6°C° 0 mm 1 mps 611 mmHg 68%
    03:00 -6°C° 0 mm 1 mps 611 mmHg 70%
    04:00 -6°C° 0 mm 1 mps 611 mmHg 71%
    05:00 -6°C° 0 mm 1 mps 611 mmHg 72%
    06:00 -6°C° 0 mm 1 mps 612 mmHg 73%
    07:00 -6°C° 0 mm 1 mps 612 mmHg 74%
    08:00 -6°C° 0 mm 1 mps 612 mmHg 70%
    09:00 -4°C° 0 mm 1 mps 612 mmHg 66%
    10:00 -3°C° 0 mm 1 mps 613 mmHg 62%
    11:00 -3°C° 0 mm 1 mps 613 mmHg 59%
    12:00 -2°C° 0 mm 1 mps 612 mmHg 56%
    13:00 -1°C° 0 mm 1 mps 612 mmHg 54%
    14:00 -3°C° 0 mm 2 mps 612 mmHg 54%
    15:00 -3°C° 0 mm 2 mps 611 mmHg 54%
    16:00 -3°C° 0 mm 2 mps 611 mmHg 54%
    17:00 -4°C° 0 mm 2 mps 611 mmHg 58%
    18:00 -5°C° 0 mm 2 mps 611 mmHg 61%
    19:00 -5°C° 0 mm 2 mps 611 mmHg 65%
    20:00 -6°C° 0 mm 2 mps 611 mmHg 67%
    21:00 -6°C° 0 mm 2 mps 611 mmHg 69%
    22:00 -6°C° 0 mm 2 mps 610 mmHg 70%
    23:00 -4°C° 0 mm 1 mps 610 mmHg 71%

    22 January, Tuesday

    Time Temperature Precipitation Wind Pressure Humidity
    00:00 -4°C° 0 mm 1 mps 610 mmHg 71%
    01:00 -6°C° 0 mm 1 mps 609 mmHg 72%
    02:00 -6°C° 0 mm 1 mps 609 mmHg 71%
    03:00 -6°C° 0 mm 0 mps 609 mmHg 71%
    04:00 -6°C° 0 mm 0 mps 608 mmHg 70%
    05:00 -6°C° 0 mm 0 mps 608 mmHg 69%
    06:00 -6°C° 0 mm 0 mps 608 mmHg 69%
    07:00 -6°C° 0 mm 0 mps 608 mmHg 68%
    08:00 -5°C° 0 mm 0 mps 609 mmHg 63%
    09:00 -4°C° 0 mm 0 mps 609 mmHg 58%
    10:00 -3°C° 0 mm 0 mps 610 mmHg 53%
    11:00 -2°C° 0 mm 0 mps 609 mmHg 50%
    12:00 -1°C° 0 mm 1 mps 609 mmHg 46%
    13:00 0°C° 0 mm 1 mps 609 mmHg 43%
    14:00 0°C° 0 mm 1 mps 609 mmHg 43%
    15:00 0°C° 0 mm 1 mps 609 mmHg 42%
    16:00 0°C° 0 mm 1 mps 609 mmHg 42%
    17:00 -1°C° 0 mm 1 mps 609 mmHg 44%
    18:00 -1°C° 0 mm 1 mps 609 mmHg 47%
    19:00 -2°C° 0 mm 1 mps 609 mmHg 49%
    20:00 -2°C° 0 mm 1 mps 610 mmHg 50%
    21:00 -3°C° 0 mm 1 mps 610 mmHg 51%
    22:00 -4°C° 0 mm 0 mps 610 mmHg 52%
    23:00 -4°C° 0 mm 0 mps 610 mmHg 52%
    Show more